Powrót do katalogu

CZ-2C R/B

AktywnyVLEO
NORAD 66548·ROCKET BODY·🇨🇳 China

Wystrzelony Nov 19, 2025 z Jiuquan Satellite Launch Center

Loading…

Następne Przeloty (najbliższe 24 godziny)

TLE

ŚwieżeSource: Space-Track

Epoka: Sep 14, 2026, 13:29 UTC

1 66548U 25266D   26257.56188446  .00010515  00000-0  26945-3 0  9995
2 66548  52.0507  89.4383 0071765  51.7251 309.0165 15.37379217 45954

Śledź CZ-2C R/B w czasie rzeczywistym z AllMySat

Download on the App Store